RH
76 67 67 72 76 81 85 82 75 74 80 87 88 82 79 82 81 79 84 86 88 87 80 79 81 78 77 80 85 83 77 75 74 75 79 79 78 78 82 87 86 83 81 80 80 74 74 86 95 95 90 87 86 84 86 86 84 85 87 85 84 88 84
75 65 61 68 75 80 84 83 78 76 81 86 86 87 88 88 87 86 88 89 88 86 79 79 83 84 83 85 86 81 73 72 72 75 81 83 80 78 77 80 84 85 83 82 83 78 71 77 89 90 88 87 86 87 88 86 86 85 85 86 88 88 86
78 70 64 70 76 79 82 83 82 84 87 89 90 92 91 90 92 92 90 89 88 83 79 81 85 88 88 89 89 82 73 70 72 74 79 82 84 84 80 77 81 84 81 78 78 78 74 73 76 78 82 83 82 87 90 87 87 86 85 88 89 87 88
74 70 69 73 78 80 83 85 87 90 89 88 88 86 83 84 89 92 88 87 87 80 77 81 84 88 89 89 89 84 78 74 74 77 79 82 86 90 88 81 79 80 76 70 67 70 72 70 69 71 78 82 83 87 90 91 92 89 86 87 86 85 84
71 71 73 77 80 81 85 89 90 89 86 84 85 81 76 75 81 92 91 87 86 78 75 80 84 87 87 85 84 83 83 80 80 83 82 82 86 91 92 85 80 80 80 76 72 71 71 70 70 68 71 80 87 90 92 94 95 92 86 83 82 82 80
72 72 74 77 81 82 84 89 89 88 86 82 79 76 76 73 72 85 91 86 83 76 74 79 81 82 82 80 80 82 85 83 82 85 82 81 85 88 90 87 81 80 82 83 80 77 77 75 75 73 72 78 86 90 93 96 95 90 86 83 82 83 82
73 70 70 73 78 82 83 85 85 85 86 80 71 68 72 72 65 71 83 84 79 73 74 79 76 74 77 79 81 84 87 84 82 85 84 83 86 88 89 88 84 80 82 85 82 79 80 78 75 76 77 82 89 92 94 97 96 89 84 82 82 85 85
75 69 69 74 79 82 83 83 82 82 85 82 73 66 69 72 66 67 79 82 75 71 76 78 74 73 77 81 84 88 91 88 85 86 87 86 87 88 87 87 86 82 83 85 81 77 78 78 76 77 79 81 89 98 98 95 94 89 84 81 79 82 80
79 71 69 75 81 84 83 82 82 82 82 83 80 73 71 73 71 71 77 78 74 75 79 79 75 75 80 84 86 90 92 90 89 88 86 83 83 84 85 87 88 85 85 86 81 77 77 78 79 81 81 76 79 90 96 95 90 85 83 82 77 74 70
84 75 68 71 78 84 86 84 85 87 86 86 86 81 77 78 78 75 75 77 79 81 81 80 78 77 80 83 84 87 89 90 90 87 82 78 78 81 84 87 88 87 89 88 83 80 79 78 79 81 83 81 74 74 80 85 84 81 80 78 73 68 59
91 83 75 75 73 78 87 90 92 94 92 91 90 85 82 83 82 79 76 78 83 85 83 80 76 74 77 79 79 82 85 87 86 84 81 80 79 80 82 85 87 89 90 88 84 82 80 77 78 81 84 86 82 74 70 70 73 77 77 70 67 64 53
93 88 83 85 81 78 83 86 92 93 87 85 90 92 89 84 81 82 80 79 81 81 80 76 69 68 74 77 78 79 80 80 80 80 81 82 81 81 81 83 86 88 90 89 86 84 82 78 77 82 86 88 87 81 75 69 66 70 70 60 57 56 52
92 95 93 92 85 81 80 79 82 83 73 69 79 92 94 88 84 83 78 75 75 75 75 73 66 68 76 79 78 77 76 76 76 78 80 81 81 81 81 82 85 88 89 90 88 85 83 79 77 82 87 89 90 86 82 77 67 64 61 54 53 52 50
95 99 99 90 76 74 79 80 80 79 73 66 67 78 90 93 90 83 72 67 70 71 72 73 69 70 78 81 80 78 78 78 77 78 80 79 78 80 81 82 83 86 87 89 89 87 85 81 79 82 86 91 94 89 84 79 69 63 59 53 52 52 49
99 100 99 89 77 76 81 81 80 81 77 70 65 67 80 91 91 81 69 65 69 70 72 73 69 70 80 84 81 81 82 81 79 78 77 74 73 75 77 79 83 85 86 88 91 90 87 85 83 83 85 91 93 87 79 76 71 66 62 57 53 51 49
93 99 100 91 84 85 84 79 78 78 76 71 66 64 75 91 91 81 74 71 71 70 72 72 66 67 77 79 75 75 78 80 79 76 72 68 69 73 75 77 81 84 85 87 90 90 88 89 88 87 86 89 91 85 78 74 71 69 68 63 57 52 48
83 91 97 94 91 89 85 83 81 76 72 72 70 66 72 88 91 85 82 79 76 73 70 68 64 66 71 68 62 60 65 75 77 74 71 69 69 72 74 76 78 81 83 83 86 89 88 87 89 89 88 88 89 87 84 80 74 73 72 67 61 55 49
90 91 90 86 89 89 85 87 85 78 74 73 71 64 68 84 91 87 85 84 82 77 70 67 68 68 67 61 53 51 60 72 76 75 76 74 73 75 75 76 77 79 81 80 81 85 87 87 88 90 90 89 87 88 89 85 80 78 72 64 62 60 52
99 98 91 83 86 87 84 86 86 82 79 74 68 61 64 83 92 88 89 90 86 79 72 72 73 69 65 61 57 60 71 78 79 78 77 75 76 78 76 76 79 82 84 82 78 80 83 85 88 90 90 88 85 86 87 85 82 77 66 55 56 57 50
99 100 98 93 93 90 87 90 86 81 77 71 66 59 63 83 93 90 92 91 87 82 78 79 77 69 65 63 64 72 81 83 81 76 72 71 74 75 73 72 74 76 80 83 82 82 82 84 88 89 88 87 85 85 86 85 83 78 66 55 51 51 48
100 100 100 99 99 96 93 93 86 80 76 69 62 59 65 83 93 93 91 87 84 82 79 80 79 71 69 68 70 76 81 81 79 73 70 71 74 76 74 68 65 65 69 77 86 89 87 87 89 89 89 90 89 85 84 85 83 79 73 63 53 50 49
99 100 100 98 98 96 96 95 89 84 79 70 64 64 72 85 89 88 87 82 79 74 69 75 78 74 74 76 76 78 77 77 76 71 70 71 72 75 72 64 61 59 62 73 86 90 90 92 94 93 91 92 93 88 83 81 80 79 77 69 58 52 50
100 100 99 98 94 91 94 96 92 87 82 78 75 69 72 84 85 83 83 80 77 69 65 74 77 74 77 79 77 77 75 73 72 70 70 69 67 70 68 63 61 56 57 69 82 88 91 93 93 93 91 90 91 87 80 78 80 79 76 70 62 58 54
100 101 99 100 97 93 94 93 91 90 87 86 82 68 64 77 80 79 80 80 78 68 65 76 78 71 74 74 71 73 73 71 71 70 68 66 65 66 64 62 62 58 63 74 82 89 94 93 91 90 89 87 86 84 78 76 78 76 70 65 61 59 55
96 100 99 101 99 98 99 93 90 95 92 85 78 62 58 72 77 76 78 78 77 67 62 74 77 68 69 71 69 70 71 71 70 67 66 66 65 63 60 61 60 59 69 81 86 93 98 94 90 87 84 82 80 79 76 73 72 68 62 56 54 54 51
95 98 100 100 97 98 100 94 93 97 89 79 69 54 57 75 82 79 77 75 75 67 60 70 75 68 67 72 72 70 69 69 68 66 67 67 65 62 60 62 60 56 68 85 93 97 97 91 87 82 77 75 72 70 69 65 61 58 53 49 47 46 43
98 99 101 100 98 98 98 95 98 96 82 73 66 55 62 80 83 79 78 75 75 68 61 67 73 70 68 70 72 72 70 69 67 66 66 66 66 66 63 63 60 55 69 90 97 96 92 86 82 78 74 72 69 67 65 61 57 54 51 48 48 47 46
100 100 100 99 99 99 97 97 99 91 75 72 71 64 69 82 82 78 79 77 73 68 61 61 66 66 65 67 70 71 69 69 68 65 64 64 67 69 65 64 62 60 72 93 98 94 90 87 83 80 77 73 70 68 66 64 63 62 60 59 59 60 60
100 100 100 100 100 99 100 99 95 88 81 82 83 80 80 83 80 78 78 76 72 67 61 58 60 61 63 66 70 70 68 68 67 65 64 65 69 70 67 67 67 65 73 86 89 84 83 83 83 82 79 76 74 72 69 67 67 67 66 67 68 67 66
97 101 99 99 99 99 101 99 91 90 93 90 86 84 82 80 77 76 76 75 70 66 62 60 61 63 65 67 69 70 68 66 64 63 64 65 69 70 68 70 72 71 72 76 76 73 73 77 81 80 77 75 73 72 71 70 70 70 69 69 69 67 67
92 99 100 98 97 97 100 100 95 92 92 88 81 80 78 76 74 74 73 72 68 65 64 63 64 66 68 68 67 68 68 64 60 62 64 67 69 70 72 75 76 76 75 74 74 73 73 77 82 82 78 75 72 72 73 74 74 74 72 71 71 70 72
86 95 100 98 97 98 99 100 96 89 86 83 79 77 75 73 73 74 74 73 70 69 68 67 67 68 69 70 70 68 66 62 61 64 67 68 71 73 77 79 79 79 77 75 74 75 75 76 80 81 80 79 78 78 80 80 80 79 77 76 75 76 76
84 90 96 97 98 100 99 97 93 87 84 83 79 77 77 77 77 77 76 74 71 70 70 69 69 70 69 69 70 70 68 66 66 70 73 74 75 77 80 81 80 78 77 75 75 75 76 77 77 78 78 78 79 79 78 77 77 76 73 70 68 67 65
86 86 90 93 95 98 99 97 94 90 89 87 84 81 82 81 78 76 75 72 67 65 66 67 68 70 70 67 65 67 72 75 74 73 75 76 78 79 80 80 81 82 83 83 83 81 80 79 78 77 76 75 74 73 70 67 64 59 54 50 46 42 38
90 87 87 88 89 94 98 98 95 92 90 88 85 83 81 80 78 76 75 74 70 69 71 72 74 78 82 81 78 76 79 84 83 82 83 85 87 87 88 87 87 89 89 86 83 79 76 73 70 67 63 58 53 49 45 42 38 34 29 25 21 18 16
89 89 88 86 87 92 96 97 95 92 90 88 85 84 83 81 80 78 77 77 75 74 75 74 75 80 87 92 95 94 93 93 92 89 89 89 86 84 83 82 79 77 75 71 66 62 57 51 45 39 33 28 24 21 19 17 16 14 14 13 13 14 15
86 87 88 89 91 93 93 93 92 91 91 89 87 85 85 84 83 81 80 79 77 75 75 72 70 72 73 75 79 83 83 85 85 80 75 73 70 66 64 64 61 58 54 46 39 35 30 25 21 18 16 15 15 15 15 16 17 17 18 19 20 20 21
Wind_Speed
22 19 16 17 20 21 21 21 22 23 24 25 24 24 24 23 24 24 23 23 23 22 21 20 19 18 17 17 16 15 14 14 13 11 12 13 15 15 14 13 11 9 7 7 8 8 9 13 13 12 12 12 12 11 10 10 9 7 6 5 5 5 5
21 18 16 18 20 21 22 22 23 24 24 24 24 25 24 24 24 23 23 23 22 21 20 19 18 18 18 18 17 16 15 14 13 12 12 14 15 15 14 14 13 11 9 8 9 9 8 11 13 14 15 14 13 12 10 10 9 8 7 6 7 7 6
23 21 20 20 22 23 23 23 24 23 23 24 25 24 23 23 23 23 22 22 22 20 19 18 18 18 18 18 17 16 15 14 14 14 14 14 14 15 15 14 14 13 10 10 11 10 10 10 11 14 17 16 15 14 12 11 10 9 9 8 9 9 7
25 24 23 22 22 24 25 24 24 24 24 25 26 24 23 23 23 22 21 21 21 20 19 18 19 19 19 19 18 17 16 16 16 15 15 14 14 15 16 15 14 13 10 9 8 9 11 12 10 13 17 17 15 14 13 11 10 10 10 10 10 8 6
25 25 25 23 23 23 25 25 25 26 26 26 26 24 23 23 23 22 21 22 22 21 20 19 20 20 19 19 19 18 17 18 17 16 16 16 15 15 17 16 14 13 12 9 7 8 10 10 10 11 14 16 15 14 13 12 12 12 11 10 9 7 6
25 24 25 24 23 22 22 25 26 27 27 26 24 23 24 24 24 24 23 23 23 22 21 20 21 21 20 19 19 18 18 18 18 18 17 17 16 15 16 16 15 14 13 11 8 8 10 10 10 10 12 15 16 15 14 13 14 14 12 11 9 8 7
25 24 24 24 23 22 21 24 26 27 27 25 25 24 24 23 23 23 23 23 23 22 21 21 21 21 20 19 19 19 19 18 18 18 17 17 16 15 15 15 15 14 13 12 10 10 10 11 10 10 12 16 16 14 14 15 16 16 14 12 11 9 7
26 24 24 23 23 23 23 24 26 27 26 25 25 25 24 24 24 22 21 22 23 22 21 20 21 21 20 19 19 19 19 18 18 18 17 17 17 16 14 15 14 13 13 12 12 11 11 11 10 9 12 17 18 15 15 16 17 17 14 12 11 10 8
27 25 24 23 24 25 24 25 26 27 27 26 25 26 25 24 24 22 21 22 23 23 21 21 21 21 21 20 20 20 19 18 18 18 18 17 17 16 15 15 14 13 13 13 12 12 12 11 11 10 11 16 18 17 18 19 19 18 15 13 11 10 8
28 26 24 23 23 24 25 25 27 28 29 28 26 26 26 25 23 22 21 22 23 23 22 21 21 21 20 20 20 19 18 18 19 19 18 16 16 16 16 16 15 13 12 13 13 13 12 12 12 12 11 14 16 16 17 19 20 19 17 14 12 9 8
27 26 25 23 22 24 25 25 27 29 30 29 27 26 26 25 24 23 22 22 23 23 23 22 21 20 19 19 20 19 18 18 19 19 18 16 16 16 16 16 15 14 13 14 14 14 14 13 13 13 12 13 16 16 15 14 15 17 17 14 12 10 9
26 26 25 23 22 24 25 26 26 26 27 27 26 26 26 25 24 23 22 23 23 23 23 22 20 19 18 18 19 19 18 18 19 19 18 17 16 16 15 15 15 15 14 14 15 15 15 14 13 13 13 14 16 17 17 14 11 12 14 12 10 10 9
27 26 26 23 22 24 25 25 24 24 24 25 25 25 26 26 24 22 23 23 23 24 23 22 20 19 19 18 18 18 19 19 19 18 18 17 17 16 16 15 15 15 15 14 15 16 16 15 14 15 14 15 16 17 19 17 11 8 10 10 9 9 9
25 26 27 22 19 22 23 22 22 22 23 24 25 25 26 26 24 22 23 24 23 23 23 22 21 20 20 19 19 19 19 19 19 18 18 18 18 17 17 16 15 14 15 15 15 16 16 15 15 16 16 16 17 17 18 18 13 9 8 9 9 9 9
22 23 26 22 19 21 21 21 22 22 22 24 25 25 27 27 25 23 23 23 23 23 23 23 22 21 21 20 20 20 19 19 19 19 19 18 18 18 17 17 16 14 15 16 15 17 17 16 16 17 17 17 17 17 17 17 15 12 10 10 10 9 10
20 20 22 22 22 22 21 22 23 23 23 24 25 25 27 28 25 23 23 23 23 23 23 23 23 22 22 21 20 20 20 19 19 19 18 17 16 16 17 17 16 15 16 15 16 17 18 17 17 17 18 18 17 17 17 17 17 15 14 13 13 11 10
20 19 19 20 21 22 20 21 23 23 24 25 25 25 26 27 25 23 23 23 22 22 22 23 23 22 22 20 20 20 20 19 18 18 17 15 15 15 15 15 16 15 15 15 16 17 17 17 18 19 19 20 20 20 18 18 17 16 16 16 15 14 12
18 19 19 19 20 21 22 23 24 24 25 26 25 24 25 26 25 24 25 24 21 20 21 22 22 21 20 18 18 19 18 18 17 16 15 14 13 14 13 14 14 14 14 14 15 17 17 18 18 19 19 21 22 22 20 19 18 17 17 18 17 16 15
16 19 21 20 18 21 23 25 25 26 27 27 25 23 24 25 25 25 25 23 21 20 21 21 20 19 17 17 17 17 17 17 16 15 14 14 13 13 12 12 12 12 12 13 14 16 17 17 17 17 18 19 21 22 21 21 19 16 15 15 15 16 16
14 17 21 21 19 20 24 25 26 27 28 28 26 23 24 25 26 26 24 22 21 22 22 21 19 18 17 16 17 18 17 17 16 15 14 14 13 12 10 9 9 9 11 11 13 14 15 16 16 16 16 17 19 20 22 23 21 17 14 13 14 15 15
13 15 18 21 21 22 23 24 26 28 29 29 27 25 26 28 27 26 25 23 23 22 22 22 20 19 17 16 18 18 17 18 18 16 14 13 13 11 9 8 7 8 9 11 12 14 15 15 16 16 17 17 17 18 21 23 24 20 15 14 16 16 14
15 14 15 18 21 23 22 24 26 29 30 30 28 26 26 28 27 26 26 25 23 21 20 21 21 19 18 18 18 18 16 17 17 15 14 13 13 12 10 9 8 8 9 11 13 14 15 15 16 17 18 17 17 18 20 23 26 23 18 15 16 17 17
14 14 15 17 20 22 22 24 26 29 32 31 29 26 26 27 26 26 26 25 23 19 19 21 21 20 19 19 19 18 16 16 16 15 14 13 13 13 11 9 9 9 11 12 13 14 15 15 16 18 17 16 17 18 18 21 25 25 20 18 17 18 18
13 14 16 16 20 23 23 25 27 30 34 33 30 28 29 30 28 27 26 25 23 20 20 22 21 20 20 19 18 18 17 16 15 15 14 13 13 12 11 10 9 9 10 11 11 12 13 14 15 16 16 15 16 15 14 16 20 20 20 20 20 20 19
15 14 15 15 20 25 26 26 28 33 37 36 33 31 31 31 30 29 27 26 24 21 20 23 22 19 19 18 17 17 16 16 16 15 15 14 14 12 10 10 9 8 9 10 10 11 13 13 13 14 13 12 13 14 14 14 16 16 17 18 20 19 16
18 15 16 15 19 26 29 29 32 37 38 37 34 32 33 33 32 31 29 28 25 21 20 23 22 19 19 18 17 17 17 17 17 16 16 15 14 12 11 10 8 7 9 10 10 10 12 12 12 12 12 11 12 13 13 13 15 15 14 14 14 15 15
19 15 16 17 20 27 32 33 36 39 38 38 36 34 35 36 34 32 31 30 26 22 21 23 21 20 20 19 19 19 18 18 19 18 17 15 14 13 13 11 8 6 8 11 10 11 13 13 13 13 13 12 12 12 11 11 12 12 12 12 13 13 14
14 12 15 20 25 31 35 35 38 40 38 40 40 39 38 37 34 33 33 30 27 23 22 23 22 20 20 20 20 20 19 19 19 18 17 17 16 15 14 12 8 6 8 11 11 11 13 15 15 14 13 13 13 12 11 11 11 11 11 11 11 12 14
11 8 13 19 26 33 39 38 40 43 42 41 42 42 39 36 34 34 32 30 27 24 24 24 22 21 21 21 21 20 19 19 19 18 18 18 18 17 16 12 9 8 9 10 11 11 12 14 14 13 13 14 13 12 12 11 11 11 12 12 12 12 13
11 3 8 15 19 26 36 41 40 39 39 39 40 41 38 36 35 34 32 29 27 26 26 25 22 21 21 20 21 21 20 19 18 19 19 20 20 19 17 14 11 10 9 10 11 11 11 10 10 10 10 11 11 11 11 12 13 13 14 14 15 14 14
16 4 6 11 13 17 28 38 38 34 35 37 39 39 37 36 35 33 31 29 27 27 27 24 22 21 20 19 19 21 20 19 18 20 21 21 21 20 18 16 13 12 11 11 11 12 11 11 10 9 8 8 8 8 8 10 11 11 12 13 14 14 14
22 11 5 11 10 12 21 33 35 34 35 36 37 37 36 35 35 32 30 29 27 26 25 24 23 22 20 19 18 19 19 19 19 20 22 22 22 21 19 17 16 15 13 13 12 12 12 12 12 11 10 9 8 8 8 8 9 10 11 12 12 14 15
24 19 11 11 13 13 20 29 34 35 36 35 34 34 33 33 32 30 28 26 24 23 23 23 23 22 21 20 18 18 18 19 19 20 21 21 21 20 19 18 17 16 15 14 14 13 13 13 12 12 12 11 11 11 11 11 11 11 12 13 13 15 15
20 21 18 14 14 15 19 26 31 33 34 33 33 31 29 29 29 28 25 24 23 22 21 22 21 20 19 19 19 19 20 19 20 21 21 21 21 20 19 18 17 17 16 15 15 15 14 13 13 13 13 13 13 13 13 13 14 14 15 15 16 17 18
16 15 15 15 16 16 16 20 24 26 27 29 29 29 26 26 27 27 26 25 24 24 23 23 22 21 20 19 20 21 21 21 21 21 21 21 20 19 18 16 16 16 16 15 14 13 13 13 12 12 13 13 13 14 15 15 16 17 17 18 18 18 18
15 14 12 10 12 16 17 18 19 19 19 20 22 23 22 22 23 24 25 24 24 24 24 24 24 24 23 22 22 22 22 22 21 18 17 17 17 15 15 14 14 14 13 12 11 11 11 12 13 13 13 13 13 13 14 14 15 15 16 15 15 15 15
15 15 13 11 9 10 14 18 21 20 18 17 18 19 18 17 18 19 20 20 20 21 21 21 21 22 22 21 20 20 19 18 18 15 13 12 10 8 9 10 10 10 9 8 9 10 11 11 11 11 10 10 10 10 10 10 10 10 10 11 11 11 11
Wind_Direction
224 216 215 217 222 226 225 223 218 214 212 211 211 213 212 210 209 208 208 207 206 208 211 210 211 215 220 221 222 223 219 217 217 217 224 225 221 217 211 212 219 228 249 253 235 233 214 189 183 189 189 189 190 187 183 180 181 185 187 198 200 192 191
221 215 214 219 225 225 224 223 219 215 214 214 216 218 216 212 206 205 206 204 201 205 209 209 212 217 221 222 221 221 219 217 217 217 223 227 228 226 221 216 215 222 238 237 224 237 233 198 191 193 189 190 192 188 188 185 183 185 188 198 196 191 191
221 219 217 220 224 224 223 221 217 215 215 217 220 220 220 218 209 202 203 203 202 206 209 208 212 217 221 222 222 225 224 220 217 217 220 222 226 230 229 223 218 217 223 222 215 220 223 216 212 201 193 193 192 188 189 187 188 192 190 191 189 187 190
221 222 221 221 221 221 220 218 216 216 217 218 220 219 217 220 215 205 204 206 207 211 210 208 212 216 220 220 221 226 228 224 219 218 220 220 220 228 232 229 227 225 227 233 238 234 223 218 220 208 198 196 193 190 190 187 191 198 191 182 178 179 183
222 226 229 228 225 223 222 218 216 218 219 218 219 219 215 215 212 206 206 209 210 212 210 207 211 216 218 218 219 224 226 223 220 217 220 221 218 223 230 232 232 232 236 249 264 263 245 229 226 221 205 196 194 192 193 192 193 196 193 181 172 173 173
224 229 234 236 233 231 227 222 220 220 219 218 216 217 216 214 212 208 207 209 210 209 208 208 211 213 214 215 218 221 222 221 220 218 220 223 222 222 228 232 233 232 235 243 248 252 250 234 225 229 213 197 194 195 196 199 199 197 195 187 178 176 178
226 228 232 236 238 237 231 226 226 222 220 218 213 213 215 213 214 213 206 205 208 208 207 209 211 211 209 211 215 217 218 219 220 220 221 223 223 223 227 231 234 234 233 237 236 233 235 232 226 226 211 194 192 199 201 200 203 204 201 193 186 184 190
229 231 232 235 240 242 238 231 228 225 221 219 214 213 215 213 212 213 205 203 207 207 206 207 208 208 206 207 212 215 215 217 218 219 222 222 221 222 226 230 233 234 233 235 234 228 227 229 229 231 217 197 189 196 206 206 205 209 212 206 195 192 198
231 232 232 234 238 244 245 238 232 227 223 222 218 213 213 212 210 208 204 203 207 207 206 206 205 206 206 206 210 212 212 214 215 218 221 220 220 222 225 228 228 228 233 237 235 231 228 224 225 232 229 213 201 196 203 209 211 212 216 215 207 200 197
231 233 234 233 234 240 245 243 236 232 227 224 220 213 210 209 206 206 205 203 206 206 205 205 206 208 208 208 210 211 212 213 215 218 220 218 219 221 222 224 225 225 230 233 233 233 229 223 222 226 229 227 224 214 206 210 216 217 217 214 207 203 198
232 232 237 237 236 237 242 244 240 238 236 230 220 211 208 207 204 205 206 204 205 205 204 206 207 208 208 208 210 211 213 214 216 218 218 218 219 220 221 222 224 226 226 226 229 232 229 224 223 225 228 230 232 233 230 229 229 224 221 215 203 197 199
242 237 238 238 239 239 239 242 242 241 243 240 228 212 206 207 206 205 205 206 205 203 204 206 206 206 206 207 210 211 212 214 215 216 217 218 219 221 223 223 224 226 224 222 226 229 227 226 226 225 228 229 229 234 238 245 252 234 219 210 198 192 195
252 248 244 237 237 240 238 238 238 235 236 240 236 222 212 209 208 206 205 206 206 204 204 205 204 205 205 208 211 212 214 214 213 215 217 219 220 221 223 224 226 227 225 224 226 227 226 227 230 228 225 226 227 231 234 237 251 248 217 201 194 197 200
258 256 251 243 241 243 242 239 237 234 231 231 231 228 223 216 211 208 206 205 206 206 205 205 206 206 204 206 210 212 215 217 216 214 215 217 218 220 222 223 225 227 227 227 226 226 226 228 232 230 223 222 224 228 230 229 236 246 229 210 203 205 211
263 260 254 251 249 246 244 239 236 235 231 226 223 224 227 222 213 210 207 205 205 205 206 208 208 206 205 204 207 209 213 217 217 215 215 216 217 218 219 219 221 224 226 225 224 224 226 228 233 232 223 218 221 224 223 223 228 238 241 234 227 222 219
265 259 255 253 249 244 241 236 231 228 225 223 220 222 228 223 213 210 208 204 203 204 207 209 207 206 206 205 206 207 209 212 213 214 214 213 213 213 215 216 218 221 222 223 222 223 224 224 230 233 225 218 218 219 218 221 228 237 245 245 245 244 236
271 262 257 254 248 244 238 230 225 221 220 219 216 220 228 223 213 210 207 202 201 202 205 206 205 205 206 209 210 208 207 207 207 209 210 207 206 206 210 214 215 216 218 220 221 223 224 224 227 231 228 222 218 216 218 223 229 240 250 250 249 252 251
270 265 259 253 247 243 236 225 219 217 217 215 212 216 225 221 213 209 205 202 202 202 203 203 201 203 206 209 211 208 206 205 202 201 200 200 203 205 209 216 217 215 216 219 221 223 223 223 225 228 229 228 223 219 220 222 226 241 252 250 248 251 251
261 261 261 257 250 243 233 223 218 216 215 213 209 212 219 215 210 207 204 204 205 203 202 201 201 203 204 205 207 206 205 204 196 192 191 194 199 204 209 215 218 217 217 221 224 224 220 220 222 225 227 229 227 225 224 220 223 240 251 245 242 245 248
267 262 261 261 257 244 228 219 218 214 211 210 206 208 213 209 205 205 203 204 206 203 200 201 201 201 201 202 203 202 202 199 190 186 188 189 191 192 193 201 210 216 220 224 226 226 223 221 222 225 228 229 228 228 227 223 224 236 242 233 230 236 242
278 271 265 262 260 249 228 217 216 212 208 206 202 205 208 202 199 203 203 201 200 197 200 203 200 198 198 197 196 195 197 193 187 184 184 182 186 187 188 198 211 219 222 223 223 223 224 224 224 227 229 229 229 230 230 225 225 230 234 230 231 235 239
281 279 274 262 257 253 234 216 212 208 203 201 200 202 202 196 197 201 196 191 189 189 197 200 196 193 191 187 185 187 190 189 187 187 184 180 186 190 196 208 220 228 228 222 217 216 220 224 225 225 224 223 226 230 232 228 225 227 230 232 233 236 240
286 274 274 265 256 251 234 218 214 207 200 197 197 195 191 191 195 195 189 185 185 187 193 193 190 189 187 185 185 186 188 189 188 189 187 186 188 191 199 214 228 238 236 228 221 217 219 226 227 225 226 224 224 229 233 229 225 226 230 234 234 234 238
305 276 271 264 252 243 229 218 214 204 195 193 190 185 185 187 188 187 187 188 188 190 193 189 187 188 188 188 190 190 190 189 188 189 195 199 197 197 206 218 228 237 233 226 223 217 217 223 227 227 229 228 225 226 226 221 222 227 234 237 237 236 240
320 286 271 259 246 239 231 221 212 200 191 187 185 185 187 187 186 187 189 191 191 191 194 191 188 188 190 191 193 194 193 191 188 191 198 202 202 203 209 217 225 232 224 215 214 212 212 216 222 224 222 215 211 212 214 215 221 229 235 237 238 237 238
322 295 274 262 246 235 229 220 207 196 189 183 184 190 191 189 190 192 191 191 191 191 192 192 188 188 192 194 194 194 195 193 189 191 194 197 201 206 209 214 223 227 215 205 204 208 209 207 208 205 197 191 194 200 206 213 220 225 229 231 233 232 233
316 289 264 254 244 234 226 213 201 195 190 185 187 192 193 192 194 194 192 190 189 188 190 192 191 191 195 198 197 197 198 196 193 194 197 199 202 206 207 209 217 221 210 203 201 204 202 195 190 184 177 179 187 190 192 197 205 212 218 221 223 228 231
309 272 242 229 225 225 221 208 197 194 190 188 189 190 191 194 194 192 191 191 188 185 189 193 195 196 198 201 202 203 204 202 199 199 201 201 201 203 204 206 211 213 207 202 198 199 199 195 191 187 186 187 189 189 188 186 185 188 196 206 213 218 222
313 266 237 216 203 207 209 202 193 192 192 192 191 188 188 191 191 190 191 192 188 184 187 193 196 197 199 202 204 206 207 205 202 202 201 198 198 200 200 202 205 204 200 195 189 188 195 201 202 202 205 206 204 205 208 207 205 204 207 217 226 228 229
333 274 223 209 188 186 194 195 191 191 194 192 188 184 184 185 187 189 190 191 189 186 186 190 193 195 198 203 207 208 209 209 208 206 202 198 197 198 198 197 197 196 194 192 188 184 188 198 206 209 210 211 212 217 221 222 222 224 226 231 238 244 247
355 350 171 187 182 171 179 186 188 189 190 185 179 178 181 181 183 186 187 187 189 189 187 187 190 193 195 201 207 209 211 214 211 207 204 200 197 198 197 194 194 198 200 198 195 191 190 198 209 215 215 210 210 215 219 222 225 230 235 238 244 251 259
14 10 101 143 153 153 162 171 176 178 179 176 172 172 176 178 179 181 183 185 187 190 190 187 188 191 191 193 199 205 212 215 208 202 203 201 197 198 197 195 197 203 206 204 202 200 201 206 213 219 219 217 217 216 218 225 233 240 246 251 255 260 265
33 27 46 99 120 130 145 157 165 170 171 170 169 170 172 175 178 178 179 182 184 187 191 189 187 189 192 191 190 194 203 206 202 198 199 199 197 198 197 197 200 204 206 208 210 210 213 216 220 224 228 231 234 234 236 241 246 251 256 259 262 265 268
50 42 39 56 85 106 128 143 153 161 163 163 165 168 169 172 175 173 172 176 176 177 181 183 182 183 189 193 192 193 197 198 198 199 198 197 198 199 198 199 201 205 209 212 214 218 222 226 230 235 240 244 248 252 256 258 261 264 266 266 268 270 272
59 57 46 44 55 70 98 124 136 144 148 150 154 157 158 161 164 163 163 165 166 166 167 170 171 172 176 182 185 189 192 192 193 196 197 197 197 197 200 203 204 206 211 215 219 224 229 236 243 248 252 256 259 261 263 264 264 265 266 266 268 268 270
58 64 57 44 42 50 67 90 105 116 126 134 139 142 142 145 149 152 153 154 156 158 158 158 160 162 164 169 173 178 183 183 182 184 187 190 191 191 194 199 201 207 214 223 233 242 248 255 260 262 262 262 261 260 260 260 261 262 264 267 269 270 273
58 66 69 71 70 65 65 73 80 87 95 105 115 121 121 122 127 133 137 139 142 148 151 151 154 158 160 164 167 170 175 177 178 179 182 185 190 195 201 207 215 221 227 239 251 257 261 263 264 263 263 262 261 261 261 262 265 267 270 274 277 281 285